Regional Weather Roundup
Issued by NWS

Home | Current Version | Previous Version | Graphics & Text | Print | Product List | Glossary On
Versions: 1 2 3 4 5 6 7 8 9 10 11 12 13 14 15 16 17 18 19 20 21 22 23 24 25 26 27 28 29 30 31 32 33 34 35 36 37 38 39 40 41 42 43 44 45 46 47 48 49 50
000
ASUS45 KTFX 230619
RWRMT
MONTANA HOURLY WEATHER ROUNDUP
NATIONAL WEATHER SERVICE GREAT FALLS MT
1119 PM MST SAT NOV 22 2014

NOTE: "FAIR" INDICATES FEW OR NO CLOUDS BELOW 12000 FEET WITH NO
SIGNIFICANT WEATHER AND/OR OBSTRUCTIONS TO VISIBILITY.

* THESE STATIONS ARE NOT UNDER NWS QUALITY CONTROL. THEY DO NOT
   REPORT WEATHER SUCH AS PRECIPITATION OR FOG.

MTZ001>007-043-230700-
WEST OF THE DIVIDE
CITY           SKY/WX    TMP DP  RH WIND       PRES   REMARKS
KALISPELL      PTCLDY    30  25  82 SE7       29.76R WCI  23
MISSOULA       CLOUDY    36  27  70 N6        29.83R WCI  31
BUTTE          LGT SNOW  27  25  92 NW3       29.76R VSB 1 1/2
MULLAN PASS    FOG       25  23  92 NW8G17    29.79R VSB 1    WCI  16
* ESSEX        N/A       35  22  59 N/A        N/A
* EUREKA APT   MOCLDY    39  21  48 S3        29.77R
* HAMILTON APT CLOUDY    34  30  85 SW3       29.84R
* LIBBY APT    PTCLDY    36  23  59 CALM      29.82R
* LINCOLN      N/A       31  22  69 SW3G8      N/A
* LOOKOUT PASS N/A       29  27  92 N4         N/A
* POLSON       N/A       32  22  67 W3         N/A
* RONAN APT    MOCLDY    34  27  76 N/A        N/A
* SEELEY LAKE  N/A       32  25  75 NW3G12     N/A
* THOMP F APT  MOCLDY    21  13  71 NW6G14     N/A   WCI  13
* YAAK HILL    N/A       34  25  70 S1G6       N/A
$$

MTZ008-052>055-230700-
SOUTHWEST MONTANA
CITY           SKY/WX    TMP DP  RH WIND       PRES   REMARKS
BOZEMAN        CLOUDY    32  21  64 NW6       29.75R WCI  26
DILLON         CLOUDY    30  21  69 S9        29.77R WCI  22
* W YELLOWSTON MOCLDY    14  11  88 SW2        N/A
* ENNIS APT    PTCLDY    34  16  48 W6         N/A   WCI  29
* THREE FORKS  PTCLDY    37  23  57 W10G18     N/A   WCI  30
* BOULDER HILL N/A       29  10  45 SW5G17     N/A   WCI  24
* MONIDA PASS  N/A       17   7  65 SW4        N/A
* RAYNOLDS PAS N/A       19   4  52 S6         N/A   WCI  11
* WHITEHALL    N/A       30  22  72 N5         N/A   WCI  25
* WISE RIVER   N/A       28  17  63 NW6G15     N/A   WCI  21
$$

MTZ009>010-012-014-046-048-049-054-230700-
EAST SLOPES AND CENTRAL MONTANA
CITY           SKY/WX    TMP DP  RH WIND       PRES   REMARKS
CUT BANK       PTCLDY    30  18  61 W16       29.60R WCI  19
GREAT FALLS    PTCLDY    30  19  64 SW14      29.63R WCI  19
HELENA         PTCLDY    36  21  54 W14       29.72R WCI  27
MALMSTROM AFB  MOCLDY    30  19  64 SW13      29.66R WCI  20
* CONRAD       PTCLDY    36  19  50 W15G23     N/A   WCI  27
* DEARBORN     N/A       39  18  43 S11G17     N/A   WCI  32
* EAST GLACIER N/A       31  13  47 NW8G23     N/A   WCI  24
* MONARCH      N/A       29  12  49 W16G23     N/A   WCI  17
* PENDROY      N/A       31  15  51 N9         N/A   WCI  23
* ROGERS PASS  N/A       27  20  75 SE6G12     N/A   WCI  20
* SAINT MARY   N/A       32  17  54 SW10G26    N/A   WCI  24
* SWEET GRASS  N/A       31  31 100 NW14       N/A   WCI  21
* WHITE SULPH  N/A       30  17  58 W3G15      N/A
$$

MTZ011-013-016-021-035-040-045-047-050-051-230700-
NORTH CENTRAL MONTANA
CITY           SKY/WX    TMP DP  RH WIND       PRES   REMARKS
HAVRE          CLOUDY    36  30  79 W22G29    29.56R WCI  25
LEWISTOWN      CLOUDY    36  18  48 W13       29.60R WCI  27
* N BAR RANCH  CLEAR     34  12  40 NW25G40   29.52S WCI  21
* CHINOOK      MOCLDY    37  30  76 W15G22    29.55R WCI  28
* FORT BENTON  MOCLDY    37  19  48 SW10      29.65R WCI  30
* CHESTER      N/A       36  26  67 NW11G21    N/A   WCI  28
* DENTON       N/A       37  17  44 W16G21     N/A   WCI  28
* GEYSER       N/A       34  14  44 W18G26     N/A   WCI  23
* JUDITH GAP   N/A       31  13  47 NW13G19    N/A   WCI  21
* LOMA         N/A       38  21  50 SW12G21    N/A   WCI  30
$$

MTZ017>020-022>027-061-062-230700-
NORTHEAST MONTANA
CITY           SKY/WX    TMP DP  RH WIND       PRES   REMARKS
GLASGOW        CLOUDY    37  30  76 W26G39    29.39R WCI  25
GLENDIVE       PTCLDY    36  30  79 W24G31    29.43R WCI  24
JORDAN         CLOUDY    36  30  79 W24G33    29.48R WCI  24
SIDNEY         MOCLDY    39  30  70 W23G31    29.37R WCI  28
WOLF POINT     CLOUDY    39  32  76 W24G37    29.36R WCI  28
* BEAVER HILL  N/A       38  27  65 SW26G34    N/A   WCI  26
* CIRCLE       N/A       37  32  82 SW18G23    N/A   WCI  27
* LINDSAY DVD  N/A       33  31  92 W26G34     N/A   WCI  20
* NAVAJO       N/A       35  31  85 W26G32     N/A   WCI  22
* PLENTYWOOD A MOCLDY    37  30  76 W23G33    29.25R WCI  26
* POPLAR APT   PTCLDY    37  32  82 N/A       29.34R
* SACO         N/A       38  31  76 W24G31     N/A   WCI  27
$$

MTZ028>042-056>058-230700-
SOUTHCENTRAL AND SOUTHEAST MONTANA
CITY           SKY/WX    TMP DP  RH WIND       PRES   REMARKS
BAKER          MOCLDY    37  25  62 W22G32    29.46R WCI  26
BILLINGS       PTCLDY    37  14  39 W18       29.63R WCI  27
LIVINGSTON     CLOUDY    37  16  42 W15G24    29.69R WCI  28
MILES CITY     LGT RAIN  36  30  79 W28G40    29.52R WCI  23
* BIG TIMBER A MOCLDY    37  18  46 W33G39    29.62R WCI  24
* FORSYTH APT  MOCLDY    37  28  70 W20G29    29.58R WCI  27
* LAUREL APT   CLEAR     36  12  37 N/A        N/A
* ALZADA       N/A       36  29  76 W11        N/A   WCI  28
* HYSHAM       N/A       38  14  37 NW9        N/A   WCI  32
* LAME DEER    N/A       34  15  46 NW14       N/A   WCI  24
* REED POINT   N/A       39  16  39 W14G21     N/A   WCI  31
* ROSCOE HILL  N/A       32   4  30 W4G13      N/A
$$

REGIONAL REPORTS...DAKOTAS
CITY           SKY/WX    TMP DP  RH WIND       PRES   REMARKS
WILLISTON      MOCLDY    39  30  70 W24G30    29.30R WCI  28
DICKINSON      CLOUDY    37  30  76 W14       29.36R WCI  28
BEACH          FAIR      36  28  73 W23G29    29.41R WCI  24
CROSBY         MOCLDY    34  30  85 SW13      29.25R WCI  25
TIOGA          PTCLDY    36  32  85 SW17G23   29.31R WCI  26
BISMARCK       PTCLDY    32  30  92 S3        29.38R
GRAND FORKS    FOG       34  32  92 S12       29.36S WCI  25
FARGO          FOG       36  34  92 S14       29.38S WCI  27
BUFFALO SD     CLOUDY    39  30  70 W17       29.41R WCI  30
RAPID CITY     CLOUDY    37  34  89 N18       29.50R WCI  27
$$

REGIONAL REPORTS...WYOMING/IDAHO/WASHINGTON
CITY           SKY/WX    TMP DP  RH WIND       PRES   REMARKS
GILLETTE       CLOUDY    36  19  50 NW15      29.59R WCI  27
SHERIDAN       PTCLDY    30  16  56 W7        29.63R WCI  23
CODY           PTCLDY    36  12  37 SW10G20   29.67R WCI  29
YELLOWSTONE LA MOCLDY     7   3  83 CALM      29.75R
SALMON         CLOUDY    32  27  82 N7        29.86R VSB 2 1/2 WCI  25
MULLAN PASS    FOG       25  23  92 NW8G17    29.79S VSB 1    WCI  16
SAND POINT     PTCLDY    36  32  85 S8        29.88R WCI  30
SPOKANE        CLEAR     32  30  92 S7        29.93R WCI  25
$$

REGIONAL REPORTS...ALBERTA
CITY           SKY/WX    TMP DP  RH WIND       PRES   REMARKS
CALGARY        MOCLDY    28  25  89 N10       29.61R WCI  19
LETHBRIDGE     CLOUDY    34  30  85 W8        29.64R WCI  27
MEDICINE HAT   CLOUDY    30  25  82 NW14G22   29.59R WCI  19
EDMONTON       LGT SNOW  21  16  81 NW14G20   29.65R WCI   8
WATERTON GATE  N/A       34  14  44 W14G22     N/A   WCI  24
CARDSTON       N/A       30  18  61 W8         N/A   WCI  22
MILK RIVER     N/A       32  30  92 N15        N/A   WCI  22
$$

REGIONAL REPORTS...SASKATCHEWAN
CITY           SKY/WX    TMP DP  RH WIND       PRES   REMARKS
SWIFT CURRENT  LGT SNOW  19  18  96 NW25G35   29.37R WCI   1
REGINA         LGT SNOW  32  32 100 W17       29.14R WCI  21
VAL MARIE      N/A       32  27  82 NW28G35    N/A   WCI  18
ASSINIBOIA     N/A       27  23  85 W30G40     N/A   WCI  11

$$




USA.gov is the U.S. government's official web portal to all federal, state and local government web resources and services.